Location: Newark
(30.0333°N, 31.2167°E)
Time: 18:43:35
(UTC+00:00)

Tiros 1 despin weight - Pass Details

Date: 22 January 2020
Orbit: 594 x 642 km, 48.2° (Epoch: 27 February)

Event Time Altitude Azimuth Distance (km) Brightness Sun altitude
Rises 10:31:51 0° 261° (W) 2,857 ? 39.9°
Reaches altitude 10° 10:34:29 10° 276° (W) 1,964 ? 39.8°
Maximum altitude 10:38:10 24° 330° (NNW) 1,288 ? 39.6°
Drops below altitude 10° 10:41:53 10° 25° (NNE) 1,994 ? 39.5°
Sets 10:44:36 0° 39° (NE) 2,912 ? 39.4°
